Location: Embalse del Alberche
(40.4236°N, 4.5774°W)
Time: 23:08:50
(UTC+00:00)

Daily predictions for brighter satellites

Satellite Brightness Start Highest point End
(mag) Time Altitude Azimuth Time Altitude Azimuth Time Altitude Azimuth
Cosmos 1378 Rocket 3.6 18:33:02 10° N 18:37:25 61° E 18:41:49 10° SSE
Cosmos 1908 Rocket 3.9 18:33:45 10° SSE 18:38:01 46° E 18:42:19 10° NNE
Atlas Centaur 2 3.8 18:32:27 10° WSW 18:39:50 40° S 18:47:37 10° ESE
HJ-1C 4.4 18:37:53 10° SE 18:40:38 25° ENE 18:43:23 10° NNE
Meteor 2-12 Rocket 4.4 18:37:12 10° S 18:43:18 82° E 18:49:25 10° N
IRAS Rocket 4.3 18:40:01 10° NNE 18:45:41 82° ESE 18:51:17 10° SSW
CZ-4 R/B 4.5 18:42:28 10° SSE 18:46:38 89° WSW 18:50:49 10° NNW
ARGOS 3.1 18:41:55 10° SSE 18:47:14 76° ENE 18:52:37 10° N
CZ-4C R/B 3.8 18:44:29 10° N 18:48:02 58° WNW 18:51:32 10° SSW
Cosmos 1346 Rocket 3.9 18:47:08 10° NNE 18:50:30 25° ENE 18:53:51 10° SE
YAOGAN 1 2.7 18:47:52 10° SSE 18:52:04 53° ENE 18:56:17 10° N
SJ 16-02 1.9 18:49:39 10° SSE 18:53:40 35° E 18:57:43 10° NE
H-2A R/B 2.8 18:48:51 10° S 18:53:46 57° W 18:58:53 10° NNW
Okean O Rocket 2.4 18:50:12 10° S 18:54:28 55° W 18:58:46 10° NNW
Cosmos 1943 Rocket 2.8 18:51:13 10° SW 18:56:42 61° WNW 19:02:16 10° NNE
Cosmos 2082 Rocket 4.1 18:52:02 10° NW 18:57:04 33° WSW 19:02:03 10° SSW
Cosmos 1674 Rocket 3.9 18:53:50 10° NNW 18:58:09 68° W 19:02:25 10° S
DMSP B5D2-2 4.3 18:53:19 10° NNE 18:58:28 49° E 19:03:33 10° S
NOSS 3-2 (A) 4.0 18:54:26 10° SSE 18:58:56 27° ESE 19:03:51 10° NE
Cosmos 1238 Rocket 3.8 18:54:58 10° S 19:01:18 79° E 19:06:51 10° N
ISS -1.1 19:02:57 10° NNW 19:04:28 12° N 19:05:58 10° NNE
CZ-2C R/B 3.4 19:03:48 10° N 19:09:17 61° WNW 19:14:47 10° SSW
IRS-1C Rocket 4.1 19:06:02 10° SSE 19:11:12 65° ENE 19:16:25 10° N
COSMOS 2455 3.3 19:06:54 10° NW 19:12:52 65° WSW 19:18:49 10° SSE
Cosmos 1295 Rocket 4.4 19:09:01 10° S 19:15:12 72° E 19:21:30 10° NNE
Geosat 3.9 19:10:27 10° NNE 19:15:29 72° ESE 19:20:29 10° SSW
Cosmos 2369 Rocket 2.2 19:10:59 10° SSW 19:16:40 89° WNW 19:22:20 10° NNE
Okean 2 Rocket 4.4 19:19:52 20° ENE 19:19:52 20° ENE 19:22:23 10° NE
ASTRO E2 4.5 19:18:25 10° SSW 19:21:10 18° S 19:22:15 16° SSE
Cosmos 2327 Rocket 4.5 19:16:30 10° S 19:22:44 85° E 19:29:06 10° N
Cosmos 1674 2.5 19:19:41 10° N 19:23:25 86° E 19:27:09 10° S
Cosmos 1777 Rocket 4.1 19:18:57 10° SSW 19:24:12 82° WNW 19:29:27 10° NNE
CSL-04 Debris 4.2 19:19:56 10° SSE 19:25:13 60° ENE 19:30:32 10° N
Lacrosse 5 rocket 1.7 19:21:18 10° NW 19:25:50 72° SW 19:28:53 19° SSE
H-2A R/B 2.5 19:22:51 10° N 19:26:58 62° WNW 19:31:01 10° SSW
Cosmos 1782 Rocket 3.6 19:25:19 10° S 19:29:45 86° W 19:34:11 10° N
H-2A R/B 4.1 19:25:48 10° SSW 19:29:58 39° W 19:34:12 10° NNW
CZ-3B R/B 4.3 19:25:22 10° WNW 19:30:58 23° WSW 19:33:41 10° SSW
Cosmos 1626 2.0 19:27:38 10° N 19:31:20 64° E 19:33:38 21° SSE
Cosmos 1656 Rocket 3.6 19:27:05 10° SSW 19:32:40 85° ESE 19:38:13 10° NNE
Sich 1 Rocket 3.9 19:28:34 10° SSE 19:32:51 42° E 19:37:07 10° NNE
BREEZE-M R/B 4.1 19:30:40 10° WNW 19:34:01 27° N 19:36:13 16° NE
Cosmos 1805 3.1 19:30:54 10° S 19:34:46 87° E 19:38:40 10° N
ATLAS CENTAUR R/B 3.0 19:30:48 10° NW 19:35:14 40° WSW 19:39:45 10° S
APEX 4.1 19:31:33 10° N 19:35:38 32° NE 19:35:58 31° ENE
SeaSat 1 3.4 19:36:15 27° ENE 19:37:18 30° NE 19:41:33 10° N
Cosmos 1315 Rocket 2.6 19:33:44 10° S 19:37:41 74° E 19:41:43 10° NNE
Cosmos 2154 Rocket 4.5 19:33:51 10° SSW 19:40:08 65° W 19:46:28 10° N
Cosmos 1025 Rocket 3.2 19:36:04 10° N 19:40:14 45° E 19:41:02 40° ESE
CZ-4B R/B 1.5 19:37:25 10° N 19:40:30 68° WNW 19:43:39 10° SSW
SL-14 R/B 3.5 19:36:43 10° N 19:40:32 45° E 19:40:47 44° E
SJ-6B 3.3 19:41:52 39° ENE 19:42:01 40° ENE 19:45:51 10° N
SL-8 Rocket 4.1 19:37:47 10° SSE 19:43:49 53° E 19:49:57 10° NNE
CZ-4 R/B 3.1 19:43:10 10° SSW 19:46:35 31° W 19:50:02 10° NNW
MetOp-A 4.1 19:42:15 10° SSE 19:47:36 87° WSW 19:53:00 10° NNW
Meteor 2-10 4.3 19:45:20 10° SSE 19:50:45 49° E 19:56:02 10° NNE
Cosmos 1733 3.7 19:50:22 10° SSW 19:54:05 60° W 19:57:52 10° N
EO 1 Delta rocket 4.4 19:54:11 41° E 19:54:29 42° ENE 19:59:39 10° N
Cosmos 1339 Rocket 4.4 19:49:00 10° N 19:55:08 64° E 19:58:25 28° SSE
Cosmos 1975 Rocket 3.5 19:55:43 10° NNW 20:00:07 61° W 20:03:55 14° S
Cosmos 1300 Rocket 3.5 19:57:05 10° S 20:01:28 86° W 20:05:52 10° N
Meteor 1-15 Rocket 4.2 19:56:26 10° SSW 20:01:59 81° W 20:07:37 10° N
Okean-O 3.7 19:58:43 10° S 20:02:56 43° W 20:07:10 10° NNW
Cosmos 1766 3.6 20:01:11 10° SSW 20:05:05 65° W 20:08:58 10° N
Meteor 1-22 Rocket 4.1 20:03:39 10° S 20:09:09 69° E 20:14:55 10° NNE
CSL-04 Rocket 4.1 20:04:56 11° S 20:09:58 60° WSW 20:15:21 10° NNW
NOSS 3-2 (C) 3.3 20:04:45 10° SSW 20:09:25 51° SE 20:09:25 51° SE
USA 215 3.3 20:11:36 46° E 20:13:34 68° NE 20:20:04 10° NW
Cosmos 990 Rocket 4.1 20:08:31 10° S 20:14:33 56° NE 20:18:46 10° NNE
OBJECT-B 2.5 20:16:13 31° NW 20:16:13 31° NW 20:18:08 10° NNW
CENTAUR R/B 2.2 20:10:36 10° SSW 20:16:13 81° ESE 20:23:00 10° NE
Resurs 01 Rocket 3.6 20:20:48 18° NNE 20:20:48 18° NNE 20:22:13 10° N
Helios 1A Rocket 4.2 20:21:12 31° N 20:21:12 31° N 20:23:27 10° N
Meteor 2-5 Rocket 3.6 20:14:48 10° N 20:20:24 86° E 20:21:29 60° SSE
Ariane Rocket 3.6 20:22:33 42° NNE 20:22:33 42° NNE 20:26:20 10° N
CZ-3 Stage 3 3.7 19:53:42 10° WSW 20:22:06 48° S 20:24:26 40° SSE
USA 186 4.2 20:26:49 20° NW 20:26:49 20° NW 20:28:07 10° NNW
BREEZE-M DEB (TANK) 4.4 20:07:30 10° WNW 20:26:56 86° NNE 20:28:33 57° ESE
Cosmos 2366 rocket 3.9 20:22:14 10° S 20:28:23 84° W 20:34:33 10° N
Atlas Centaur 2 3.7 20:21:21 10° WSW 20:29:01 39° S 20:30:32 36° SSE
SJ 16-02 3.9 20:28:59 10° WSW 20:32:20 21° WNW 20:35:42 10° NNW
Cosmos 1241 Rocket 4.3 20:27:53 10° NNW 20:34:10 72° ENE 20:34:12 72° ENE
USA 238 DEB 3.6 20:34:19 10° SW 20:40:47 79° NW 20:47:36 10° NNE
USA 238 3.6 20:34:26 10° SW 20:40:52 79° NW 20:47:42 10° NNE
Cosmos 2218 Rocket 4.2 20:35:02 10° SSW 20:41:07 65° W 20:47:18 10° N
ISS -0.6 20:39:53 10° NNW 20:40:17 12° NNW 20:40:17 12° NNW
Cosmos 2297 Rocket 4.1 20:38:35 10° N 20:40:51 18° NNE 20:40:51 18° NNE
NOSS 3-2 (A) 4.2 20:44:01 10° WSW 20:49:19 46° NW 20:55:25 10° NNE
Meteor 1-24 Rocket 4.4 20:57:09 10° NNW 21:02:07 48° W 21:02:07 48° W
Cosmos 2227 Rocket 4.3 21:01:09 10° N 21:02:56 17° NNE 21:02:56 17° NNE
SeaSat 1 4.1 21:16:03 31° WNW 21:16:03 31° WNW 21:19:15 10° NW
USA 281 4.5 21:12:50 10° NNE 21:15:50 30° NNE 21:15:50 30° NNE
